Theta_e
305 306 305 306 306 306 307 307 307 307 308 308 308 309 309 307 309 311 301 303 302 296 298 302 303 297 298 296 292 296 295 297 297 291 291 290 290 293 291 295 293 291 292 291 292 289 285 302 300 291 293 294 296 295
305 305 305 306 306 306 306 306 306 307 309 309 309 310 308 307 309 310 298 306 306 300 300 303 305 306 304 303 298 295 296 296 299 294 293 293 295 296 294 287 298 289 294 290 291 290 296 296 295 296 296 295 295 294
304 305 306 305 305 305 306 306 306 307 309 309 307 306 307 307 310 311 300 306 302 299 298 297 298 303 306 305 303 295 295 300 299 300 296 296 292 292 288 290 292 296 296 291 290 293 294 295 296 296 296 296 295 295
304 305 305 305 304 305 305 306 307 307 308 309 307 307 307 308 310 313 302 305 301 298 292 295 305 302 306 306 304 301 302 300 300 299 294 292 291 295 291 292 292 294 294 292 292 293 295 296 296 295 297 296 295 295
305 305 304 304 304 304 305 306 305 306 307 309 308 307 307 309 311 311 305 303 300 298 291 294 299 300 301 303 303 301 300 298 296 295 294 292 292 293 290 290 289 294 292 291 289 296 294 294 296 297 295 295 294 294
304 304 303 304 304 304 304 305 304 306 307 309 308 309 309 310 310 302 301 305 299 301 295 288 295 298 300 300 300 299 300 298 296 295 294 295 296 293 288 286 293 296 297 296 295 297 296 296 297 297 294 295 295 294
304 304 304 304 304 305 305 305 305 306 307 309 308 309 310 311 308 299 296 299 302 300 295 290 290 297 300 299 298 297 297 296 296 293 293 294 293 291 288 286 292 297 298 297 298 297 294 296 294 296 296 296 297 296
303 304 304 304 304 304 305 306 306 306 308 308 308 309 311 309 306 303 300 306 303 298 296 288 289 294 299 294 294 296 294 294 294 293 293 292 291 289 286 290 295 299 298 298 297 297 296 296 296 295 295 295 293 293
302 303 304 304 304 304 306 305 308 308 309 308 310 309 304 302 301 303 310 307 301 298 290 289 287 288 296 294 294 295 294 291 293 291 291 292 288 287 292 293 297 298 297 297 296 296 295 295 294 294 293 292 292 292
301 302 304 304 304 305 305 307 309 309 310 310 305 300 296 300 307 308 300 297 295 294 292 289 291 290 294 293 292 292 290 289 287 290 293 289 288 294 296 297 299 299 298 298 294 293 293 293 292 292 292 292 293 293
301 302 303 304 304 305 305 306 308 308 308 302 297 295 297 305 301 298 291 289 288 287 290 290 291 291 296 292 292 292 289 288 286 289 290 286 287 292 297 298 299 298 298 298 299 298 295 294 292 292 293 294 294 293
301 303 303 304 304 305 305 305 305 303 301 301 299 301 301 297 292 291 286 287 286 286 289 290 291 293 295 298 297 295 289 290 286 292 290 285 290 294 296 296 297 298 299 299 299 297 295 294 294 293 293 293 293 294
300 301 302 302 303 303 304 305 305 305 305 301 299 296 292 289 286 286 284 286 283 288 291 292 291 296 296 298 294 293 288 287 291 287 287 289 293 295 296 296 296 298 299 298 297 295 295 295 296 294 293 294 294 295
299 299 299 300 301 303 303 303 304 303 302 296 293 286 288 286 287 285 286 288 291 291 292 293 291 295 296 293 290 288 289 289 285 283 285 290 293 295 296 297 296 295 296 296 295 295 295 295 294 295 295 295 295 295
298 299 300 299 302 303 303 301 302 301 300 293 294 284 286 289 290 291 292 292 294 295 294 292 292 295 293 293 290 288 286 285 285 285 287 291 294 295 296 296 295 295 294 294 295 294 295 294 294 293 294 295 296 297
299 299 296 301 302 302 302 301 301 300 299 296 294 290 291 290 292 293 292 293 295 296 295 295 290 291 290 291 287 286 285 284 286 288 292 293 294 295 296 296 296 296 295 294 294 295 295 294 293 293 295 296 297 298
299 291 301 302 302 302 301 299 299 296 294 294 291 293 291 292 292 293 294 293 295 296 291 291 288 286 288 285 285 287 285 288 290 292 294 294 295 295 297 297 297 297 295 295 294 294 294 294 294 294 294 296 297 299
293 293 302 302 301 301 300 298 295 294 290 292 289 290 292 294 293 294 293 293 293 291 290 290 290 286 285 285 284 287 290 291 293 294 295 295 296 298 299 297 297 297 295 295 294 294 294 293 292 293 295 295 298 300
294 296 300 301 299 296 295 296 294 288 291 291 292 292 292 294 293 293 292 291 291 291 290 289 289 285 285 287 288 289 290 291 292 294 296 297 298 298 298 298 297 296 295 294 293 293 293 293 293 294 295 295 298 299
300 300 300 301 300 293 293 292 294 288 287 289 291 291 291 292 292 291 290 290 288 286 285 285 285 287 289 291 292 292 292 292 293 294 295 297 300 300 298 298 297 298 294 293 293 292 292 292 293 295 295 295 298 298
297 298 300 298 295 293 292 291 289 290 290 288 289 290 290 292 290 289 288 289 287 284 283 286 287 289 291 293 292 292 292 293 294 295 296 297 300 298 298 299 298 296 293 292 292 292 292 292 295 296 295 295 298 300
295 301 295 297 292 294 291 292 290 292 289 289 287 288 288 288 287 288 289 287 286 287 287 288 289 290 292 292 293 294 295 295 296 296 295 297 298 298 300 300 298 297 294 294 294 293 293 293 294 296 295 295 297 299
298 296 293 294 289 284 285 290 287 288 286 286 287 285 285 286 287 290 286 287 288 289 289 289 291 293 293 295 295 295 296 296 297 296 297 299 299 302 302 301 300 297 296 296 296 295 293 291 293 296 295 296 298 298
297 291 288 287 285 281 289 286 287 286 286 284 284 284 285 286 288 285 283 284 286 289 288 290 293 292 293 293 292 293 295 296 298 297 299 299 299 303 304 302 301 301 301 299 297 296 294 294 293 295 296 296 297 298
283 283 283 277 284 285 284 284 284 284 282 285 285 284 285 286 282 282 282 282 288 288 289 290 291 291 290 291 295 298 298 296 300 299 299 300 296 296 299 301 302 303 302 300 298 296 294 294 295 296 296 296 297 299
275 283 280 283 283 283 284 283 283 283 283 284 284 285 285 280 282 281 284 288 288 289 289 289 289 290 290 292 295 298 298 301 301 298 298 298 297 297 297 298 298 299 301 302 300 297 295 294 295 296 297 296 291 299
277 282 283 287 286 286 284 285 285 283 284 284 282 284 283 278 280 284 287 289 289 290 291 292 293 293 293 294 299 301 301 301 301 300 299 298 297 297 298 298 298 300 302 302 301 300 297 295 295 296 297 297 299 301
285 285 283 284 284 284 284 283 284 284 282 284 284 284 279 280 278 285 289 290 291 291 293 292 293 294 295 295 298 299 300 300 300 299 298 297 297 298 299 300 301 293 303 303 302 301 298 297 297 297 297 298 298 301
282 284 284 283 285 285 285 285 285 286 288 283 281 279 279 285 288 289 289 290 290 290 290 291 291 292 292 293 295 296 297 297 296 294 292 291 293 296 298 299 300 299 302 299 289 296 299 298 298 298 298 298 300 301
283 285 283 284 284 283 285 287 286 287 286 284 284 283 283 286 289 290 290 290 290 290 291 291 289 290 289 290 291 293 294 294 295 294 291 291 294 297 298 299 299 300 301 300 298 293 288 295 292 297 296 297 298 299
285 284 283 283 284 286 287 287 286 285 283 280 287 286 285 288 287 289 290 292 295 294 292 290 288 289 289 288 289 289 290 292 294 295 295 295 296 297 299 299 299 301 301 299 298 298 297 297 297 297 296 296 296 296
283 284 283 284 283 285 286 281 280 285 284 286 286 288 289 288 284 288 292 293 291 290 288 288 288 289 290 290 289 290 287 291 292 293 295 294 294 296 298 298 299 301 301 299 299 300 299 298 298 298 297 296 296 297
286 286 287 286 283 283 286 287 289 288 288 286 286 287 288 288 287 293 297 297 295 294 295 295 294 293 293 294 292 291 287 291 290 286 286 286 286 289 294 296 297 300 300 299 299 299 299 298 297 297 298 297 296 297
Wind_Speed
4 2 4 5 6 8 8 8 12 13 15 12 9 10 8 8 8 3 4 3 3 1 5 2 0 2 2 2 2 4 4 4 4 4 2 2 2 1 3 1 3 3 2 1 1 1 3 3 2 2 3 2 3 3
3 5 6 7 8 7 7 10 12 13 13 9 8 9 7 7 8 1 3 1 1 3 5 2 5 5 5 6 6 2 4 3 3 4 0 1 1 1 2 2 2 1 5 4 6 5 2 2 1 2 1 4 2 3
5 7 9 7 3 7 8 11 12 13 14 10 11 11 10 7 10 4 2 3 2 2 5 4 3 3 2 4 4 4 2 3 0 3 3 1 1 3 2 4 1 0 2 2 3 1 1 2 3 3 4 5 4 4
7 7 2 3 5 7 9 10 10 13 13 11 10 8 6 8 8 4 1 1 1 3 2 6 3 4 4 3 2 3 6 4 4 2 2 2 2 2 3 2 3 4 3 4 2 0 1 1 3 5 7 6 6 5
7 4 1 3 6 8 9 10 11 13 13 11 7 6 7 8 7 1 2 2 1 4 3 5 6 2 5 3 6 5 5 3 2 1 1 3 1 2 2 2 2 3 6 5 6 6 4 3 7 6 6 4 4 4
6 5 3 4 6 8 10 11 11 13 14 11 4 5 6 6 5 2 2 1 1 2 3 2 4 4 4 4 5 4 3 3 3 3 2 3 2 3 3 2 5 3 2 3 1 5 3 7 7 4 5 5 4 5
5 5 4 5 7 10 11 12 12 13 13 7 4 5 4 6 2 2 4 3 1 1 3 3 5 4 3 3 2 3 3 1 3 1 1 1 1 4 3 3 4 2 3 5 7 9 6 2 5 6 6 6 6 5
5 5 4 4 8 10 12 14 14 14 8 5 5 6 4 6 4 1 2 2 2 4 3 2 5 3 1 1 1 1 2 2 3 1 1 1 2 2 1 5 2 4 6 5 5 4 5 9 7 6 5 4 4 4
3 6 5 5 8 11 13 16 13 6 6 5 5 9 3 2 1 1 6 3 2 4 2 2 4 4 2 1 1 3 2 1 2 1 2 3 1 3 6 6 7 8 7 9 7 8 8 9 7 6 5 4 4 2
4 5 7 6 8 11 13 14 4 5 7 12 2 2 1 2 6 7 4 3 4 3 2 3 1 3 3 1 1 2 2 2 1 4 1 2 4 5 2 5 7 9 10 12 9 5 5 4 6 5 4 3 4 3
6 7 8 5 8 11 10 12 8 9 5 1 2 1 2 4 2 3 1 1 1 2 3 3 5 2 1 4 3 2 3 0 1 4 2 2 4 3 6 2 6 8 8 6 6 5 5 7 7 6 4 5 4 4
6 9 5 6 8 10 8 7 4 2 1 2 4 3 0 3 4 1 3 1 3 6 3 4 5 5 1 2 3 1 3 1 3 1 2 2 5 2 2 4 7 8 8 8 8 9 7 7 7 6 5 5 3 2
6 7 8 8 8 7 10 10 9 3 1 1 4 3 3 2 3 5 7 4 4 4 4 3 2 3 1 2 3 3 2 4 1 2 3 5 1 2 4 6 9 8 11 9 9 7 7 7 5 5 5 3 3 2
7 7 8 8 8 5 6 8 10 5 2 2 3 4 3 5 5 5 5 4 5 3 4 3 2 2 1 4 2 3 2 2 2 0 4 3 4 5 4 3 9 7 8 8 7 6 7 6 5 5 5 4 3 2
8 8 8 7 3 3 2 6 7 1 1 2 3 5 6 5 5 4 4 3 2 1 4 2 3 3 3 4 2 2 2 1 3 4 4 2 5 7 6 5 7 8 7 6 5 6 6 6 6 4 3 2 2 1
9 7 3 6 4 3 3 3 1 1 2 3 3 2 2 3 2 2 2 1 2 2 1 2 3 4 1 3 3 4 6 4 3 3 4 2 6 7 6 6 6 6 6 5 5 6 5 6 6 5 3 2 1 2
6 0 8 4 4 3 4 2 1 1 1 3 3 4 3 3 1 2 1 1 2 2 3 3 4 3 2 3 2 3 4 3 3 4 2 3 6 6 6 7 7 6 6 6 5 5 5 5 5 4 5 1 2 3
1 3 8 4 3 0 2 1 2 2 2 4 2 3 1 0 3 2 2 2 3 3 2 3 4 2 3 4 2 2 2 2 3 3 2 3 6 6 7 8 7 7 6 5 5 5 5 5 5 3 4 1 2 3
3 4 6 5 4 1 1 2 2 1 4 2 3 1 0 2 2 2 3 3 3 2 4 3 3 1 2 2 2 1 2 2 2 3 2 3 6 7 7 6 6 6 6 6 5 4 4 5 3 3 3 3 2 2
8 7 5 1 1 1 2 2 1 2 3 1 1 1 2 2 2 2 3 4 3 3 4 2 3 3 3 2 3 2 2 1 1 2 2 1 2 7 7 8 6 6 5 5 4 4 3 2 1 3 3 3 2 0
4 1 2 2 1 2 2 2 0 2 3 1 0 2 3 2 3 2 2 2 4 1 1 3 3 3 3 2 1 1 3 1 2 2 3 2 2 4 4 4 5 5 4 4 4 3 4 4 3 3 3 3 2 2
2 2 1 3 2 2 2 2 2 3 2 1 1 1 3 2 2 1 2 3 1 3 4 4 3 3 3 2 2 3 4 4 4 3 2 6 5 5 5 6 6 5 4 4 4 4 4 3 4 3 3 3 3 3
5 2 1 1 1 2 4 1 1 1 2 2 1 3 2 2 1 1 1 2 3 2 2 3 3 3 3 1 0 2 2 4 4 4 4 4 4 3 4 6 5 6 4 4 3 4 3 4 5 4 3 3 1 3
2 2 2 1 2 3 3 2 0 1 1 2 2 2 2 1 1 2 2 2 3 3 2 1 3 3 2 3 2 2 3 3 4 2 4 5 5 5 5 5 5 5 4 4 5 4 4 3 5 5 4 3 3 3
3 4 3 4 1 1 2 1 1 3 2 1 2 1 1 1 2 1 2 4 2 2 3 1 2 2 2 2 2 3 5 3 3 3 3 3 3 4 3 3 3 3 4 4 5 5 4 4 4 5 5 4 5 5
2 2 3 2 2 1 1 1 2 2 2 2 1 0 1 3 1 3 2 2 2 2 1 3 4 2 1 1 2 4 6 4 1 3 2 3 4 5 5 5 3 3 3 3 5 7 7 5 6 7 6 6 5 3
2 2 3 2 1 1 1 1 1 2 2 2 2 2 2 1 2 3 2 2 2 2 1 1 3 4 4 3 1 2 4 6 2 1 2 2 1 4 5 6 7 4 6 7 6 8 9 8 7 7 6 4 4 3
4 2 1 2 1 1 1 1 1 2 2 2 3 2 4 6 5 3 4 2 3 1 1 3 3 3 3 2 1 3 2 5 6 6 2 2 3 3 3 2 1 5 4 7 7 7 8 8 7 7 6 6 5 4
3 3 1 2 0 0 2 3 2 2 2 3 4 3 4 3 2 2 2 2 2 3 2 2 3 2 3 3 3 3 2 1 1 5 3 2 3 4 4 3 2 2 3 4 3 7 10 9 9 8 8 5 3 1
3 2 0 1 1 2 2 2 1 1 2 2 2 2 3 2 2 1 2 3 4 4 3 2 2 2 1 1 1 2 2 2 1 1 2 2 2 3 4 4 4 3 2 5 6 5 7 6 6 3 4 4 3 3
1 1 0 1 2 1 1 1 2 2 2 1 1 2 3 2 3 2 2 2 3 3 4 3 1 1 4 3 0 1 2 2 4 4 2 1 2 3 3 3 3 3 2 4 6 6 5 5 5 7 7 6 6 5
1 3 2 2 3 2 1 2 1 1 0 1 2 1 1 1 2 2 2 2 3 3 3 4 4 4 4 4 4 3 4 4 4 3 4 2 3 3 3 3 3 3 3 3 4 5 6 7 7 7 7 8 7 7
2 0 1 1 2 2 1 2 1 1 1 1 3 3 3 2 1 1 1 1 2 3 3 3 3 3 3 3 4 3 5 4 6 6 6 5 4 4 3 2 3 3 3 2 3 4 6 7 7 7 8 8 7 7
Wind_Direction
199 228 270 284 287 294 303 330 327 320 325 325 316 306 313 317 292 326 269 207 127 157 279 269 316 79 38 70 103 285 31 349 24 63 118 213 159 284 69 326 133 115 42 217 87 237 304 1 314 234 205 16 90 63
229 251 261 269 281 298 338 327 323 316 311 301 309 306 299 300 270 217 300 310 141 151 239 291 265 238 205 195 140 24 175 216 204 88 325 117 113 27 136 282 53 62 185 196 171 222 271 323 347 39 132 112 66 72
246 266 260 260 328 340 323 320 318 317 317 293 309 296 280 264 265 227 266 309 47 51 319 10 308 335 83 190 169 112 278 204 185 166 168 132 228 126 166 243 186 74 122 133 63 213 133 79 70 61 62 93 78 63
262 262 243 12 332 318 313 314 320 324 321 301 309 294 261 236 264 237 236 340 85 100 118 281 328 290 327 138 120 121 142 65 97 82 106 134 178 160 210 216 164 201 118 140 280 181 112 194 103 121 94 91 90 68
247 203 114 320 313 313 310 308 318 322 320 305 296 246 224 234 262 176 246 239 193 137 200 275 299 267 293 177 124 100 93 100 90 49 95 234 211 104 7 60 271 177 179 165 223 204 151 179 147 127 126 132 127 114
222 196 209 287 302 308 311 304 307 312 316 303 280 225 217 248 151 75 326 117 345 179 94 343 289 308 344 131 125 102 103 96 103 140 234 273 269 105 111 201 257 237 217 192 275 115 74 114 116 115 118 127 101 93
229 239 237 289 306 306 310 305 306 305 308 282 233 262 243 197 130 153 188 236 324 98 83 326 326 289 306 84 45 73 50 102 119 151 245 217 286 88 118 187 251 222 110 107 122 108 60 174 168 139 120 106 96 101
15 346 274 272 301 310 312 307 301 299 278 228 237 261 141 126 97 278 289 337 62 91 72 154 266 350 333 96 92 24 89 29 7 233 330 200 26 70 262 240 187 112 108 110 22 29 126 116 103 105 101 111 105 113
359 351 343 318 320 316 320 317 296 234 206 224 137 134 110 66 169 246 322 41 68 129 183 168 173 209 16 82 105 36 72 66 310 249 259 88 335 223 225 184 185 175 171 146 76 76 90 115 126 125 115 126 127 131
346 346 349 339 329 336 339 339 90 130 135 130 94 71 172 220 321 325 11 19 13 339 53 216 146 236 107 62 28 91 33 161 153 253 47 98 253 256 282 234 183 157 137 135 113 107 118 131 147 141 166 161 162 153
1 345 329 351 350 355 353 11 87 85 69 175 120 152 253 273 84 30 28 142 281 276 200 232 191 177 273 118 172 174 164 176 80 268 134 303 284 269 334 142 137 121 123 98 91 104 129 145 147 144 144 142 148 153
14 6 38 10 4 7 8 7 11 73 246 197 128 98 338 46 55 113 224 295 202 229 209 174 209 198 248 144 119 121 123 77 225 247 76 286 257 336 74 96 99 120 114 102 110 118 119 121 135 142 138 145 167 154
14 9 7 357 359 25 25 22 34 94 350 271 51 67 80 264 142 198 202 224 240 210 196 176 191 168 115 73 72 92 104 222 74 56 234 232 321 92 103 110 92 95 103 102 97 93 107 118 129 131 134 141 158 169
0 355 347 332 330 0 33 14 15 12 343 40 141 157 211 210 222 186 192 213 235 189 155 149 124 163 154 70 113 116 210 93 76 143 243 265 188 153 122 105 116 109 107 110 114 118 125 130 122 122 133 153 161 104
343 338 325 316 320 359 72 10 9 21 142 230 204 201 211 245 246 210 198 279 265 189 135 118 63 84 39 102 51 94 110 209 196 224 239 265 161 147 144 131 126 125 129 130 132 133 138 131 128 124 145 148 116 35
337 341 352 305 334 8 106 6 338 32 202 242 240 294 223 232 258 94 97 256 335 123 155 47 84 70 117 115 122 205 148 207 241 234 256 162 159 154 146 134 126 127 136 140 143 143 138 140 150 157 137 127 79 358
347 351 327 320 328 332 106 38 301 85 336 270 242 235 226 266 105 78 28 331 316 101 71 84 89 160 110 90 182 181 190 217 253 281 287 177 169 155 132 128 134 137 143 147 143 145 149 139 134 128 139 142 11 317
73 301 337 345 343 284 133 194 259 187 255 238 266 319 5 187 88 23 305 344 56 99 103 107 125 94 148 161 247 244 263 278 256 278 301 140 138 145 150 144 141 148 148 149 151 140 132 144 153 153 145 131 18 6
263 290 316 1 60 351 302 231 175 303 255 253 298 47 4 92 52 75 74 39 63 88 93 38 73 171 219 216 188 266 263 260 295 337 346 135 141 141 137 127 135 135 142 147 150 153 155 173 170 156 166 107 82 12
290 282 261 257 153 264 255 244 174 264 290 283 208 109 86 105 111 58 45 35 56 61 56 86 187 215 185 223 188 206 242 243 295 43 29 54 129 138 151 153 153 138 125 116 113 118 125 119 159 156 171 131 124 2
354 354 117 123 258 210 270 313 289 328 290 301 266 85 83 50 58 48 47 4 57 94 147 219 222 235 222 233 179 191 278 224 250 206 194 169 143 133 126 119 131 130 131 146 155 178 170 189 171 163 171 154 216 274
263 331 125 207 266 205 248 235 141 263 274 235 99 77 102 109 127 192 146 60 207 229 198 189 213 186 204 235 230 200 248 262 253 246 135 124 145 155 157 159 155 160 159 170 165 179 202 203 168 158 168 180 247 267
317 23 335 320 342 45 264 126 260 320 113 311 64 81 39 55 343 21 62 224 255 265 254 225 212 182 162 147 191 288 261 248 252 235 195 188 156 161 147 152 154 153 163 187 165 161 191 191 169 154 159 155 237 293
331 22 22 355 117 276 335 314 306 31 58 49 66 84 102 149 89 59 253 248 262 302 315 231 146 109 48 39 15 318 309 285 269 216 174 157 157 166 162 155 174 176 173 144 149 147 160 182 160 151 157 160 206 252
53 325 78 315 246 315 279 320 38 52 76 54 91 86 210 83 109 223 238 277 310 329 338 112 139 111 130 204 252 342 329 251 216 210 175 139 112 89 127 162 175 168 139 134 153 156 156 157 162 154 166 172 207 230
83 265 137 256 268 188 300 110 172 177 135 107 66 239 54 82 74 248 233 238 250 280 294 205 172 119 144 160 309 15 329 304 335 98 163 173 182 153 166 185 166 281 191 164 142 157 158 163 166 164 170 189 225 232
351 297 257 244 263 337 4 47 101 108 143 161 187 124 81 78 261 252 254 216 187 242 263 246 167 161 173 159 159 352 342 21 27 340 35 93 159 206 188 186 202 223 166 169 165 159 164 167 170 177 179 169 205 205
243 255 258 288 242 206 152 129 145 181 209 203 87 171 183 192 231 240 215 223 182 176 78 76 66 91 112 131 131 98 45 336 343 325 236 112 54 40 83 110 175 205 171 171 168 151 148 156 165 170 184 186 194 206
273 266 4 311 269 265 215 192 220 239 171 126 154 217 240 226 238 214 236 185 136 115 104 85 58 51 52 64 74 74 96 107 259 291 347 8 2 6 2 38 31 126 150 138 119 140 151 156 163 172 178 186 206 167
275 163 208 287 219 246 265 167 209 100 64 142 150 4 344 297 279 249 136 153 158 177 182 169 128 109 125 74 345 23 77 64 39 227 166 213 267 326 345 0 3 9 124 130 123 110 106 108 106 106 127 144 167 176
246 113 239 226 257 278 291 117 47 48 46 86 83 160 238 284 303 275 214 209 171 142 144 144 228 176 136 151 192 23 357 30 46 52 60 19 332 322 325 345 355 354 71 135 152 155 141 149 151 152 154 169 189 197
226 230 176 245 268 308 33 71 149 26 351 69 291 228 310 284 285 289 323 154 154 188 206 166 181 228 188 149 159 181 219 282 297 294 307 295 294 308 329 341 347 359 14 169 173 172 172 172 162 164 163 170 186 201
263 205 142 127 1 349 264 131 105 290 199 258 241 194 196 200 275 351 312 224 202 205 204 198 193 167 195 235 250 230 216 234 247 245 248 245 237 262 282 304 319 337 349 22 193 175 171 166 172 166 168 171 181 194